Hourly Weather Goias

Today, 4 March, Thursday

Time Temperature Precipitation Wind Pressure Humidity
00:00 +21°C° 1.3 mm 0 mps 717 mmHg 92%
01:00 +21°C° 0.3 mm 0 mps 717 mmHg 92%
02:00 +21°C° 0.3 mm 0 mps 716 mmHg 92%
03:00 +21°C° 0 mm 0 mps 716 mmHg 91%
04:00 +21°C° 0.3 mm 0 mps 716 mmHg 92%
05:00 +21°C° 0.3 mm 0 mps 716 mmHg 92%
06:00 +21°C° 0.3 mm 0 mps 716 mmHg 92%
07:00 +22°C° 0.1 mm 0 mps 717 mmHg 91%
08:00 +22°C° 0.1 mm 0 mps 717 mmHg 90%
09:00 +23°C° 0.1 mm 0 mps 718 mmHg 89%
10:00 +24°C° 0.7 mm 0 mps 718 mmHg 84%
11:00 +28°C° 0.7 mm 1 mps 718 mmHg 79%
12:00 +29°C° 0.7 mm 1 mps 717 mmHg 74%
13:00 +29°C° 0.6 mm 1 mps 717 mmHg 75%
14:00 +29°C° 0.6 mm 1 mps 716 mmHg 76%
15:00 +29°C° 0.6 mm 2 mps 716 mmHg 77%
16:00 +28°C° 0.9 mm 1 mps 715 mmHg 81%
17:00 +28°C° 0.9 mm 1 mps 715 mmHg 85%
18:00 +27°C° 0.9 mm 1 mps 714 mmHg 89%
19:00 +24°C° 0.9 mm 0 mps 715 mmHg 90%
20:00 +23°C° 0.9 mm 0 mps 715 mmHg 92%
21:00 +22°C° 0.9 mm 0 mps 716 mmHg 93%
22:00 +22°C° 0.6 mm 0 mps 716 mmHg 93%
23:00 +22°C° 0.6 mm 0 mps 716 mmHg 93%

Tomorrow, 5 March, Friday

Time Temperature Precipitation Wind Pressure Humidity
00:00 +22°C° 0.6 mm 0 mps 716 mmHg 94%
01:00 +21°C° 0.5 mm 0 mps 715 mmHg 94%
02:00 +21°C° 0.5 mm 0 mps 715 mmHg 94%
03:00 +21°C° 0.5 mm 0 mps 714 mmHg 94%
04:00 +21°C° 0 mm 0 mps 714 mmHg 94%
05:00 +20°C° 0 mm 0 mps 715 mmHg 94%
06:00 +20°C° 0 mm 0 mps 715 mmHg 94%
07:00 +22°C° 0 mm 0 mps 715 mmHg 91%
08:00 +25°C° 0 mm 1 mps 716 mmHg 88%
09:00 +27°C° 0 mm 1 mps 716 mmHg 86%
10:00 +28°C° 0.5 mm 1 mps 716 mmHg 82%
11:00 +29°C° 0.5 mm 2 mps 716 mmHg 78%
12:00 +30°C° 0.5 mm 2 mps 716 mmHg 74%
13:00 +30°C° 0.4 mm 2 mps 715 mmHg 75%
14:00 +30°C° 0.4 mm 2 mps 714 mmHg 75%
15:00 +30°C° 0.4 mm 3 mps 713 mmHg 76%
16:00 +29°C° 0.3 mm 2 mps 713 mmHg 80%
17:00 +28°C° 0.3 mm 1 mps 713 mmHg 84%
18:00 +27°C° 0.3 mm 1 mps 712 mmHg 88%
19:00 +26°C° 0.6 mm 1 mps 713 mmHg 90%
20:00 +25°C° 0.6 mm 1 mps 713 mmHg 92%
21:00 +22°C° 0.6 mm 0 mps 714 mmHg 94%
22:00 +22°C° 0.6 mm 0 mps 714 mmHg 94%
23:00 +22°C° 0.6 mm 0 mps 715 mmHg 95%

Day after tomorrow, 6 March, Saturday

Time Temperature Precipitation Wind Pressure Humidity
00:00 +21°C° 0.6 mm 0 mps 715 mmHg 95%
01:00 +21°C° 0.7 mm 0 mps 715 mmHg 94%
02:00 +21°C° 0.7 mm 0 mps 714 mmHg 94%
03:00 +21°C° 0.7 mm 0 mps 714 mmHg 93%
04:00 +21°C° 0.6 mm 0 mps 714 mmHg 93%
05:00 +23°C° 0.6 mm 1 mps 714 mmHg 93%
06:00 +23°C° 0.6 mm 1 mps 714 mmHg 93%
07:00 +24°C° 0 mm 1 mps 715 mmHg 89%
08:00 +25°C° 0 mm 1 mps 715 mmHg 86%
09:00 +27°C° 0 mm 1 mps 716 mmHg 83%
10:00 +28°C° 0.2 mm 1 mps 716 mmHg 78%
11:00 +29°C° 0.2 mm 1 mps 716 mmHg 74%
12:00 +30°C° 0.2 mm 2 mps 716 mmHg 69%
13:00 +30°C° 1 mm 2 mps 715 mmHg 72%
14:00 +30°C° 1 mm 2 mps 714 mmHg 76%
15:00 +30°C° 1 mm 2 mps 713 mmHg 79%
16:00 +29°C° 1.1 mm 2 mps 713 mmHg 82%
17:00 +28°C° 1.1 mm 1 mps 713 mmHg 86%
18:00 +27°C° 1.1 mm 1 mps 713 mmHg 89%
19:00 +26°C° 0.3 mm 1 mps 713 mmHg 90%
20:00 +23°C° 0.3 mm 0 mps 714 mmHg 90%
21:00 +22°C° 0.3 mm 0 mps 715 mmHg 91%
22:00 +22°C° 0.2 mm 0 mps 715 mmHg 91%
23:00 +22°C° 0.2 mm 0 mps 715 mmHg 92%

7 March, Sunday

Time Temperature Precipitation Wind Pressure Humidity
00:00 +22°C° 0.2 mm 0 mps 715 mmHg 92%
01:00 +21°C° 0.2 mm 0 mps 715 mmHg 92%
02:00 +21°C° 0.2 mm 0 mps 714 mmHg 93%
03:00 +21°C° 0.2 mm 0 mps 714 mmHg 93%
04:00 +21°C° 0.2 mm 0 mps 714 mmHg 93%
05:00 +20°C° 0.2 mm 0 mps 714 mmHg 93%
06:00 +20°C° 0.2 mm 0 mps 715 mmHg 94%
07:00 +23°C° 0.4 mm 1 mps 715 mmHg 94%
08:00 +23°C° 0.4 mm 1 mps 716 mmHg 94%
09:00 +24°C° 0.4 mm 1 mps 717 mmHg 94%
10:00 +24°C° 0.3 mm 1 mps 717 mmHg 94%
11:00 +24°C° 0.3 mm 2 mps 717 mmHg 94%
12:00 +24°C° 0.3 mm 2 mps 717 mmHg 95%
13:00 +25°C° 0 mm 2 mps 716 mmHg 92%
14:00 +25°C° 0 mm 2 mps 716 mmHg 89%
15:00 +26°C° 0 mm 2 mps 715 mmHg 86%
16:00 +25°C° 0 mm 2 mps 715 mmHg 88%
17:00 +25°C° 0 mm 1 mps 715 mmHg 90%
18:00 +24°C° 0 mm 1 mps 715 mmHg 92%
19:00 +24°C° 0 mm 1 mps 715 mmHg 92%
20:00 +23°C° 0 mm 1 mps 715 mmHg 92%
21:00 +22°C° 0 mm 1 mps 715 mmHg 92%
22:00 +22°C° 0 mm 1 mps 715 mmHg 91%
23:00 +22°C° 0 mm 1 mps 715 mmHg 91%

8 March, Monday

Time Temperature Precipitation Wind Pressure Humidity
00:00 +22°C° 0 mm 1 mps 715 mmHg 90%
01:00 +22°C° 0 mm 1 mps 715 mmHg 89%
02:00 +22°C° 0 mm 1 mps 715 mmHg 87%
03:00 +23°C° 0 mm 1 mps 715 mmHg 85%
04:00 +20°C° 0 mm 0 mps 715 mmHg 85%
05:00 +20°C° 0 mm 0 mps 715 mmHg 86%
06:00 +20°C° 0 mm 0 mps 715 mmHg 86%
07:00 +21°C° 0 mm 0 mps 716 mmHg 86%
08:00 +21°C° 0 mm 0 mps 716 mmHg 86%
09:00 +22°C° 0 mm 0 mps 716 mmHg 86%
10:00 +24°C° 0 mm 0 mps 716 mmHg 80%
11:00 +27°C° 0 mm 1 mps 716 mmHg 75%
12:00 +29°C° 0 mm 1 mps 716 mmHg 69%
13:00 +29°C° 0 mm 1 mps 716 mmHg 69%
14:00 +29°C° 0 mm 1 mps 715 mmHg 70%
15:00 +29°C° 0 mm 1 mps 715 mmHg 70%
16:00 +28°C° 0 mm 1 mps 714 mmHg 75%
17:00 +27°C° 0 mm 1 mps 714 mmHg 81%
18:00 +26°C° 0 mm 1 mps 714 mmHg 87%
19:00 +25°C° 0 mm 1 mps 714 mmHg 87%
20:00 +22°C° 0 mm 0 mps 714 mmHg 87%
21:00 +22°C° 0 mm 0 mps 714 mmHg 87%
22:00 +22°C° 0 mm 0 mps 715 mmHg 85%
23:00 +22°C° 0 mm 0 mps 715 mmHg 83%

9 March, Tuesday

Time Temperature Precipitation Wind Pressure Humidity
00:00 +22°C° 0 mm 0 mps 715 mmHg 81%
01:00 +22°C° 0 mm 0 mps 714 mmHg 80%
02:00 +22°C° 0 mm 0 mps 714 mmHg 80%
03:00 +22°C° 0 mm 0 mps 714 mmHg 79%
04:00 +22°C° 0 mm 0 mps 714 mmHg 79%
05:00 +22°C° 0 mm 0 mps 714 mmHg 79%
06:00 +22°C° 0 mm 0 mps 714 mmHg 79%
07:00 +22°C° 0 mm 0 mps 715 mmHg 80%
08:00 +23°C° 0 mm 0 mps 715 mmHg 80%
09:00 +24°C° 0 mm 0 mps 716 mmHg 81%
10:00 +25°C° 0.2 mm 0 mps 716 mmHg 78%
11:00 +28°C° 0.2 mm 1 mps 715 mmHg 76%
12:00 +29°C° 0.2 mm 1 mps 715 mmHg 73%
13:00 +29°C° 0.3 mm 2 mps 715 mmHg 74%
14:00 +29°C° 0.3 mm 2 mps 714 mmHg 75%
15:00 +29°C° 0.3 mm 3 mps 714 mmHg 76%
16:00 +28°C° 0.2 mm 2 mps 714 mmHg 81%
17:00 +27°C° 0.2 mm 2 mps 713 mmHg 86%
18:00 +26°C° 0.2 mm 2 mps 713 mmHg 91%
19:00 +25°C° 0.2 mm 1 mps 713 mmHg 93%
20:00 +24°C° 0.2 mm 1 mps 714 mmHg 95%
21:00 +23°C° 0.2 mm 1 mps 714 mmHg 97%
22:00 +23°C° 0 mm 1 mps 714 mmHg 97%
23:00 +21°C° 0 mm 0 mps 715 mmHg 96%
Show more